Time,TemperatureF,DewpointF,PressureIn,WindDirection,WindDirectionDegrees,WindSpeedMPH,WindSpeedGustMPH,Humidity,HourlyPrecipIn,Conditions,Clouds,dailyrainin,SolarRadiationWatts/m^2,SoftwareType,DateUTC
2013-07-16 00:01:00,74.0,66.0,-100.00,SSE,155,4.0,8.0,76,0.00,,,0.01,0.000000,,2013-07-16 04:01:00,
2013-07-16 13:43:00,82.0,69.0,-100.00,North,358,7.0,11.0,64,-99.99,,,0.00,914.000000,,2013-07-16 17:43:00,
2013-07-16 13:53:00,82.0,69.0,-100.00,North,358,7.0,11.0,64,-99.99,,,0.00,914.000000,,2013-07-16 17:53:00,
2013-07-16 14:01:00,82.0,69.0,-100.00,North,358,7.0,11.0,64,-99.99,,,0.00,914.000000,,2013-07-16 18:01:00,
2013-07-16 15:43:00,85.0,70.0,-100.00,North,0,6.0,12.0,62,-99.99,,,0.00,968.000000,,2013-07-16 19:43:00,
2013-07-16 15:52:00,85.0,70.0,-100.00,North,0,6.0,12.0,62,-99.99,,,0.00,968.000000,,2013-07-16 19:52:00,
2013-07-16 16:03:00,85.0,70.0,-100.00,North,0,6.0,12.0,62,-99.99,,,0.00,968.000000,,2013-07-16 20:03:00,
2013-07-16 16:43:00,86.0,70.0,-100.00,North,5,6.0,10.0,59,0.00,,,0.00,834.000000,,2013-07-16 20:43:00,
2013-07-16 16:52:00,86.0,70.0,-100.00,North,5,6.0,10.0,59,0.00,,,0.00,834.000000,,2013-07-16 20:52:00,
2013-07-16 17:01:00,86.0,70.0,-100.00,North,5,6.0,10.0,59,0.00,,,0.00,834.000000,,2013-07-16 21:01:00,
2013-07-16 17:43:00,86.0,69.0,-100.00,NNW,344,5.0,11.0,58,0.00,,,0.00,730.000000,,2013-07-16 21:43:00,
2013-07-16 17:52:00,86.0,69.0,-100.00,NNW,344,5.0,11.0,58,0.00,,,0.00,730.000000,,2013-07-16 21:52:00,
2013-07-16 18:01:00,86.0,69.0,-100.00,NNW,344,5.0,11.0,58,0.00,,,0.00,730.000000,,2013-07-16 22:01:00,
2013-07-16 18:43:00,86.0,69.0,-100.00,NNE,15,5.0,12.0,57,0.00,,,0.00,647.000000,,2013-07-16 22:43:00,
2013-07-16 18:52:00,86.0,69.0,-100.00,NNE,15,5.0,12.0,57,0.00,,,0.00,647.000000,,2013-07-16 22:52:00,
2013-07-16 19:01:00,86.0,69.0,-100.00,NNE,15,5.0,12.0,57,0.00,,,0.00,647.000000,,2013-07-16 23:01:00,
2013-07-16 19:32:00,81.0,70.0,-100.00,NNE,14,3.0,11.0,70,0.00,,,-99.99,302.000000,,2013-07-16 23:32:00,
2013-07-16 20:01:00,81.0,70.0,-100.00,NNE,14,3.0,11.0,70,0.00,,,-99.99,302.000000,,2013-07-17 00:01:00,
2013-07-16 20:33:00,78.0,70.0,-100.00,SE,138,1.0,7.0,77,0.00,,,0.00,57.000000,,2013-07-17 00:33:00,
2013-07-16 20:42:00,78.0,70.0,-100.00,SE,138,1.0,7.0,77,0.00,,,0.00,57.000000,,2013-07-17 00:42:00,
2013-07-16 20:52:00,78.0,70.0,-100.00,SE,138,1.0,7.0,77,0.00,,,0.00,57.000000,,2013-07-17 00:52:00,
2013-07-16 21:01:00,78.0,70.0,-100.00,SE,138,1.0,7.0,77,0.00,,,0.00,57.000000,,2013-07-17 01:01:00,
2013-07-16 21:32:00,75.0,71.0,-100.00,WNW,283,0.0,4.0,87,0.00,,,0.00,24.000000,,2013-07-17 01:32:00,
2013-07-16 21:43:00,75.0,71.0,-100.00,WNW,283,0.0,4.0,87,0.00,,,0.00,24.000000,,2013-07-17 01:43:00,
2013-07-16 21:53:00,75.0,71.0,-100.00,WNW,283,0.0,4.0,87,0.00,,,0.00,24.000000,,2013-07-17 01:53:00,
2013-07-16 22:01:00,75.0,71.0,-100.00,WNW,283,0.0,4.0,87,0.00,,,0.00,24.000000,,2013-07-17 02:01:00,
2013-07-16 22:43:00,72.0,70.0,-100.00,SE,146,0.0,2.0,93,0.00,,,0.00,0.000000,,2013-07-17 02:43:00,
2013-07-16 22:53:00,72.0,70.0,-100.00,SE,146,0.0,2.0,93,0.00,,,0.00,0.000000,,2013-07-17 02:53:00,
2013-07-16 23:01:00,72.0,70.0,-100.00,SE,146,0.0,2.0,93,0.00,,,0.00,0.000000,,2013-07-17 03:01:00,
2013-07-16 23:43:00,70.0,68.0,-100.00,NNW,336,1.0,2.0,95,0.00,,,0.00,0.000000,,2013-07-17 03:43:00,
2013-07-16 23:53:00,70.0,68.0,-100.00,NNW,336,1.0,2.0,95,0.00,,,0.00,0.000000,,2013-07-17 03:53:00,